Flag for Saudi Arabia Weather past 2 weeks in Riyadh, Saudi Arabia

Now
108 °F

Clear.


Feels Like: 100 °F
Forecast: 85 / 112 °F
Wind: 12 mph from North

Location: King Khaled International Airport

Current Time: Jul 29, 2015 at 7:03:08 PM

Latest Report: Jul 29, 2015 at 6:00 PM


Visibility: 5 mi

Pressure: 29.62 "Hg (27.78 "Hg at 590m altitude)

Humidity: 5%

Dew point: 25 °F

Location of RiyadhLocation

Historic Weather in Riyadh — Graph

°F

Riyadh temperature yesterday

Maximum temperature yesterday: 109 °F (at 11:00 AM)
Minimum temperature yesterday: 84 °F (at 5:00 AM)
Average temperature yesterday: 99 °F

Past Weeks' High & Low Weather Summary

 TemperatureHumidityPressure
High113 °F (Jul 15, 2:00 PM)27% (Jul 27, 6:00 AM)30.24 "Hg (Jul 27, 6:00 AM)
Low82 °F (Jul 19, 4:00 AM)4% (Jul 23, 3:00 PM)29.56 "Hg (Jul 26, 3:00 PM)
Average99 °F9%29.66 "Hg
* Reported Jul 14 6:00 PM — Jul 29 6:00 PM, Riyadh, Weather by CustomWeather, © 2015

Note: Actual official high and low records may vary slightly from our data, if they occured in-between our weather recording intervals... More about our weather records

Advertising

Riyadh weather history for previous 24 hours

 ConditionsComfort  
Time TempWeatherWind HumidityBarometerVisibility
6:00 PM
Wed, Jul 29
108 °FClear.12 mph5%29.62 "Hg5 mi
5:00 PM109 °FClear.9 mph5%29.59 "Hg5 mi
4:00 PM111 °FClear.14 mph5%29.62 "Hg5 mi
3:00 PM111 °FSunny.10 mph5%29.62 "Hg10 mi
2:00 PM111 °FSunny.14 mph5%29.62 "Hg10 mi
1:00 PM109 °FSunny.9 mph6%29.65 "Hg10 mi
12:00 PM108 °FSunny.9 mph6%29.68 "Hg10 mi
11:00 AM108 °FSunny.13 mph6%29.68 "Hg10 mi
10:00 AM104 °FSunny.14 mph8%29.71 "Hg10 mi
9:00 AM100 °FSunny.7 mph8%29.71 "Hg10 mi
8:00 AM97 °FSunny.5 mph9%29.71 "Hg10 mi
7:00 AM88 °FSunny.No wind11%29.71 "Hg10 mi
6:00 AM84 °FSunny.No wind11%29.68 "Hg10 mi
5:00 AM86 °FClear.5 mph11%29.68 "Hg10 mi
4:00 AM84 °FClear.6 mph11%29.68 "Hg10 mi
3:00 AM90 °FClear.No wind9%29.68 "Hg10 mi
2:00 AM88 °FClear.7 mph11%29.68 "Hg10 mi
12:00 AM90 °FClear.No wind10%29.68 "Hg10 mi
11:00 PM
Tue, Jul 28
93 °FClear.No wind10%29.68 "Hg10 mi
10:00 PM97 °FClear.7 mph8%29.68 "Hg10 mi
9:00 PM99 °FClear.7 mph8%29.65 "Hg10 mi
8:00 PM102 °FClear.7 mph7%29.65 "Hg5 mi
7:00 PM106 °FClear.8 mph7%29.62 "Hg10 mi
Weather by CustomWeather, © 2015

See weather overviewHow to use our weather pages